This is the latest recevied weather packets stored in our database for station/object SP4IM-13. If no packets are shown the sender has not sent any weather packets the latest 10 day(s).
| Time | Temp. | Humidity | Pressure | Rain* | Wind** | Luminosity | Snow |
|---|---|---|---|---|---|---|---|
| 1777878007 | 17.78° C | 28% | 1011 hPa | - | - | - | - |
| 1777877413 | 17.78° C | 28% | 1011 hPa | - | - | - | - |
| 1777876803 | 17.78° C | 29% | 1011 hPa | - | - | - | - |
| 1777876203 | 17.78° C | 28% | 1011 hPa | - | - | - | - |
| 1777875606 | 17.22° C | 29% | 1011 hPa | - | - | - | - |
| 1777875002 | 16.67° C | 30% | 1011 hPa | - | - | - | - |
| 1777874410 | 16.67° C | 30% | 1011 hPa | - | - | - | - |
| 1777873805 | 16.11° C | 31% | 1011 hPa | - | - | - | - |
| 1777873203 | 16.11° C | 31% | 1011 hPa | - | - | - | - |
| 1777872612 | 15.56° C | 32% | 1011 hPa | - | - | - | - |
| 1777872003 | 15.56° C | 33% | 1011 hPa | - | - | - | - |
| 1777871406 | 15° C | 34% | 1011 hPa | - | - | - | - |
| 1777870810 | 15° C | 36% | 1011 hPa | - | - | - | - |
| 1777870208 | 13.89° C | 38% | 1011 hPa | - | - | - | - |
| 1777869603 | 12.78° C | 40% | 1011 hPa | - | - | - | - |
| 1777869003 | 12.22° C | 44% | 1011 hPa | - | - | - | - |
| 1777868404 | 12.22° C | 46% | 1011 hPa | - | - | - | - |
| 1777867803 | 11.67° C | 51% | 1011 hPa | - | - | - | - |
| 1777867204 | 12.22° C | 55% | 1011 hPa | - | - | - | - |
| 1777866606 | 11.11° C | 59% | 1011 hPa | - | - | - | - |
| 1777866003 | 11.67° C | 59% | 1011 hPa | - | - | - | - |
| 1777865403 | 11.11° C | 58% | 1011 hPa | - | - | - | - |
| 1777864804 | 11.11° C | 58% | 1011 hPa | - | - | - | - |
| 1777864208 | 11.67° C | 57% | 1011 hPa | - | - | - | - |
| 1777863605 | 12.22° C | 56% | 1011 hPa | - | - | - | - |
* Rain since midnight (hover to see other rain measurements)
** Current wind speed in m/s (hover to see current wind gust speed)